| time (UTC) | temp C | wind direction | speed KPH | gust KPH | rain 1hr cm | rain 24hr cm | rain mn cm | humidity % | barometer mb |
| 20260507114333 | 19 | 96 | 11.3 | 24.1 | 0.00 | 0.00 | 0.00 | 74 | 1014.8 |
| 20260507113840 | 19 | 113 | 8.0 | 20.9 | 0.00 | 0.00 | 0.00 | 74 | 1014.8 |
| 20260507113331 | 18 | 126 | 11.3 | 20.9 | 0.00 | 0.00 | 0.00 | 74 | 1014.8 |
| 20260507112334 | 19 | 100 | 8.0 | 22.5 | 0.00 | 0.00 | 0.00 | 74 | 1014.9 |
| 20260507111840 | 19 | 149 | 11.3 | 22.5 | 0.00 | 0.00 | 0.00 | 74 | 1014.9 |
| 20260507111332 | 19 | 75 | 11.3 | 22.5 | 0.00 | 0.00 | 0.00 | 74 | 1014.9 |
| 20260507110838 | 19 | 125 | 8.0 | 20.9 | 0.00 | 0.00 | 0.00 | 74 | 1015.0 |
| 20260507110329 | 19 | 82 | 8.0 | 19.3 | 0.00 | 0.00 | 0.00 | 74 | 1015.0 |
| 20260507105848 | 19 | 88 | 9.7 | 19.3 | 0.00 | 0.00 | 0.00 | 73 | 1015.0 |
| 20260507105338 | 19 | 123 | 9.7 | 22.5 | 0.00 | 0.00 | 0.00 | 73 | 1015.0 |
| 20260507104844 | 19 | 60 | 9.7 | 20.9 | 0.00 | 0.00 | 0.00 | 72 | 1015.1 |
| 20260507104336 | 19 | 142 | 11.3 | 22.5 | 0.00 | 0.00 | 0.00 | 71 | 1015.2 |
| 20260507103839 | 19 | 62 | 9.7 | 20.9 | 0.00 | 0.00 | 0.00 | 72 | 1015.1 |
| 20260507103330 | 19 | 97 | 9.7 | 20.9 | 0.00 | 0.00 | 0.00 | 71 | 1015.1 |
| 20260507102836 | 18 | 117 | 9.7 | 20.9 | 0.00 | 0.00 | 0.00 | 73 | 1015.0 |
| 20260507101835 | 19 | 115 | 9.7 | 22.5 | 0.00 | 0.00 | 0.00 | 73 | 1015.2 |
| 20260507101345 | 19 | 87 | 8.0 | 22.5 | 0.00 | 0.00 | 0.00 | 74 | 1015.2 |
| 20260507100830 | 18 | 88 | 6.4 | 19.3 | 0.00 | 0.00 | 0.00 | 75 | 1015.2 |
| 20260507100341 | 18 | 111 | 11.3 | 19.3 | 0.00 | 0.00 | 0.00 | 75 | 1015.3 |
| 20260507095839 | 18 | 98 | 8.0 | 16.1 | 0.00 | 0.00 | 0.00 | 76 | 1015.2 |
| 20260507095331 | 18 | 63 | 8.0 | 16.1 | 0.00 | 0.00 | 0.00 | 76 | 1015.3 |
| 20260507094834 | 18 | 96 | 8.0 | 17.7 | 0.00 | 0.00 | 0.00 | 76 | 1015.2 |
| 20260507094330 | 18 | 68 | 14.5 | 17.7 | 0.00 | 0.00 | 0.00 | 76 | 1015.4 |
| 20260507093836 | 18 | 28 | 9.7 | 16.1 | 0.00 | 0.00 | 0.00 | 77 | 1015.3 |
| 20260507093349 | 18 | 67 | 6.4 | 17.7 | 0.00 | 0.00 | 0.00 | 76 | 1015.2 |
| 20260507092834 | 18 | 61 | 9.7 | 19.3 | 0.00 | 0.00 | 0.00 | 76 | 1015.2 |
| 20260507092346 | 18 | 50 | 9.7 | 19.3 | 0.00 | 0.00 | 0.00 | 76 | 1015.2 |
| 20260507091340 | 18 | 80 | 8.0 | 14.5 | 0.00 | 0.00 | 0.00 | 74 | 1015.3 |
| 20260507090847 | 18 | 38 | 8.0 | 16.1 | 0.00 | 0.00 | 0.00 | 76 | 1015.2 |
| 20260507090338 | 18 | 73 | 9.7 | 16.1 | 0.00 | 0.00 | 0.00 | 76 | 1015.2 |
| 20260507085836 | 18 | 56 | 4.8 | 16.1 | 0.00 | 0.00 | 0.00 | 75 | 1015.2 |
| 20260507085331 | 18 | 100 | 6.4 | 17.7 | 0.00 | 0.00 | 0.00 | 76 | 1015.2 |
| 20260507084833 | 18 | 54 | 6.4 | 16.1 | 0.00 | 0.00 | 0.00 | 76 | 1015.2 |
| 20260507083847 | 18 | 63 | 6.4 | 14.5 | 0.00 | 0.00 | 0.00 | 76 | 1015.1 |
| 20260507083339 | 18 | 64 | 6.4 | 16.1 | 0.00 | 0.00 | 0.00 | 77 | 1015.2 |
| 20260507082338 | 17 | 75 | 8.0 | 17.7 | 0.00 | 0.00 | 0.00 | 78 | 1015.1 |
| 20260507081339 | 17 | 35 | 6.4 | 14.5 | 0.00 | 0.00 | 0.00 | 78 | 1015.1 |
| 20260507080844 | 17 | 100 | 6.4 | 25.7 | 0.00 | 0.00 | 0.00 | 77 | 1015.0 |
| 20260507080334 | 17 | 96 | 9.7 | 25.7 | 0.00 | 0.00 | 0.00 | 78 | 1015.1 |
| 20260507075831 | 17 | 64 | 8.0 | 12.9 | 0.00 | 0.00 | 0.00 | 78 | 1015.0 |
| 20260507075343 | 17 | 88 | 4.8 | 12.9 | 0.00 | 0.00 | 0.00 | 80 | 1015.0 |
| 20260507074848 | 17 | 48 | 4.8 | 16.1 | 0.00 | 0.00 | 0.00 | 80 | 1015.0 |
| 20260507074340 | 17 | 74 | 9.7 | 16.1 | 0.00 | 0.00 | 0.00 | 79 | 1015.0 |
| 20260507073343 | 17 | 37 | 6.4 | 17.7 | 0.00 | 0.00 | 0.00 | 80 | 1014.9 |
| 20260507072848 | 17 | 48 | 9.7 | 12.9 | 0.00 | 0.00 | 0.00 | 79 | 1014.9 |
| 20260507072341 | 17 | 75 | 8.0 | 14.5 | 0.00 | 0.00 | 0.00 | 80 | 1014.9 |
| 20260507071847 | 17 | 17 | 6.4 | 11.3 | 0.00 | 0.00 | 0.00 | 81 | 1014.9 |
| 20260507071339 | 17 | 57 | 6.4 | 12.9 | 0.00 | 0.00 | 0.00 | 81 | 1014.9 |
| 20260507070828 | 17 | 40 | 8.0 | 16.1 | 0.00 | 0.00 | 0.00 | 82 | 1014.9 |
| 20260507070342 | 17 | 67 | 8.0 | 16.1 | 0.00 | 0.00 | 0.00 | 82 | 1015.0 |
| 20260507065839 | 17 | 69 | 8.0 | 17.7 | 0.00 | 0.00 | 0.00 | 82 | 1014.9 |
| 20260507065349 | 17 | 77 | 4.8 | 16.1 | 0.00 | 0.00 | 0.00 | 83 | 1014.9 |
| 20260507064833 | 17 | 34 | 9.7 | 16.1 | 0.00 | 0.00 | 0.00 | 83 | 1014.9 |
| 20260507064328 | 17 | 36 | 6.4 | 12.9 | 0.00 | 0.00 | 0.00 | 83 | 1015.0 |
| 20260507063833 | 17 | 28 | 4.8 | 12.9 | 0.00 | 0.00 | 0.00 | 84 | 1015.0 |
| 20260507063345 | 17 | 75 | 4.8 | 12.9 | 0.00 | 0.00 | 0.00 | 84 | 1015.0 |
| 20260507062832 | 16 | 67 | 3.2 | 12.9 | 0.00 | 0.00 | 0.00 | 85 | 1014.9 |
| 20260507062345 | 16 | 32 | 6.4 | 14.5 | 0.00 | 0.00 | 0.00 | 85 | 1015.0 |
| 20260507061832 | 16 | 59 | 4.8 | 12.9 | 0.00 | 0.00 | 0.00 | 85 | 1015.0 |
| 20260507060342 | 16 | 48 | 3.2 | 6.4 | 0.00 | 0.00 | 0.00 | 86 | 1014.9 |
| 20260507055330 | 15 | 51 | 3.2 | 9.7 | 0.00 | 0.00 | 0.00 | 87 | 1014.8 |
| 20260507054838 | 15 | 2 | 0.0 | 1.6 | 0.00 | 0.00 | 0.00 | 84 | 1014.8 |
| 20260507054331 | 15 | 2 | 0.0 | 3.2 | 0.00 | 0.00 | 0.00 | 84 | 1014.6 |
| 20260507053835 | 15 | 2 | 0.0 | 3.2 | 0.00 | 0.00 | 0.00 | 86 | 1014.6 |
| 20260507053332 | 14 | 7 | 0.0 | 4.8 | 0.00 | 0.00 | 0.00 | 86 | 1014.5 |
| 20260507052839 | 13 | 350 | 1.6 | 4.8 | 0.00 | 0.00 | 0.00 | 85 | 1014.5 |
| 20260507052332 | 13 | 298 | 0.0 | 0.0 | 0.00 | 0.00 | 0.00 | 85 | 1014.5 |
| 20260507051838 | 13 | 298 | 0.0 | 0.0 | 0.00 | 0.00 | 0.00 | 84 | 1014.4 |
| 20260507051349 | 13 | 298 | 0.0 | 0.0 | 0.00 | 0.00 | 0.00 | 84 | 1014.3 |
| 20260507050836 | 13 | 298 | 0.0 | 0.0 | 0.00 | 0.00 | 0.00 | 84 | 1014.2 |
| 20260507050347 | 13 | 298 | 0.0 | 0.0 | 0.00 | 0.00 | 0.00 | 84 | 1014.3 |
| 20260507045843 | 13 | 298 | 0.0 | 0.0 | 0.00 | 0.00 | 0.00 | 84 | 1014.1 |
| 20260507045334 | 13 | 298 | 0.0 | 0.0 | 0.00 | 0.00 | 0.00 | 83 | 1014.0 |
| 20260507044841 | 13 | 298 | 0.0 | 0.0 | 0.00 | 0.00 | 0.00 | 83 | 1014.0 |
| 20260507044333 | 13 | 298 | 0.0 | 0.0 | 0.00 | 0.00 | 0.00 | 83 | 1014.0 |
| 20260507043838 | 13 | 298 | 0.0 | 0.0 | 0.00 | 0.00 | 0.00 | 83 | 1014.1 |
| 20260507043331 | 13 | 298 | 0.0 | 0.0 | 0.00 | 0.00 | 0.00 | 83 | 1014.1 |
| 20260507042838 | 13 | 298 | 0.0 | 0.0 | 0.00 | 0.00 | 0.00 | 83 | 1014.1 |
| 20260507042331 | 13 | 298 | 0.0 | 0.0 | 0.00 | 0.00 | 0.00 | 83 | 1014.2 |
| 20260507041835 | 13 | 298 | 0.0 | 0.0 | 0.00 | 0.00 | 0.00 | 83 | 1014.2 |
| 20260507041346 | 13 | 298 | 0.0 | 0.0 | 0.00 | 0.00 | 0.00 | 82 | 1014.2 |
| 20260507040835 | 13 | 298 | 0.0 | 0.0 | 0.00 | 0.00 | 0.00 | 82 | 1014.2 |
| 20260507040346 | 13 | 298 | 0.0 | 0.0 | 0.00 | 0.00 | 0.00 | 82 | 1014.2 |
| 20260507035843 | 13 | 298 | 0.0 | 0.0 | 0.00 | 0.00 | 0.00 | 82 | 1014.1 |
| 20260507034845 | 13 | 298 | 0.0 | 0.0 | 0.00 | 0.00 | 0.00 | 81 | 1014.1 |
| 20260507034338 | 13 | 298 | 0.0 | 0.0 | 0.00 | 0.00 | 0.00 | 81 | 1014.2 |
| 20260507033845 | 13 | 298 | 0.0 | 0.0 | 0.00 | 0.00 | 0.00 | 80 | 1014.1 |
| 20260507033336 | 13 | 298 | 0.0 | 0.0 | 0.00 | 0.00 | 0.00 | 80 | 1014.1 |
| 20260507032841 | 13 | 298 | 0.0 | 0.0 | 0.00 | 0.00 | 0.00 | 80 | 1014.0 |
| 20260507032331 | 13 | 298 | 0.0 | 0.0 | 0.00 | 0.00 | 0.00 | 80 | 1014.0 |
| 20260507031837 | 13 | 298 | 0.0 | 0.0 | 0.00 | 0.00 | 0.00 | 80 | 1014.0 |
| 20260507031349 | 13 | 298 | 0.0 | 0.0 | 0.00 | 0.00 | 0.00 | 79 | 1014.0 |
| 20260507030348 | 13 | 298 | 0.0 | 0.0 | 0.00 | 0.00 | 0.00 | 79 | 1014.0 |
| 20260507025845 | 13 | 298 | 0.0 | 0.0 | 0.00 | 0.00 | 0.00 | 79 | 1013.9 |
| 20260507025338 | 13 | 298 | 0.0 | 0.0 | 0.00 | 0.00 | 0.00 | 79 | 1014.0 |
| 20260507024843 | 13 | 298 | 0.0 | 0.0 | 0.00 | 0.00 | 0.00 | 79 | 1013.9 |
| 20260507024333 | 13 | 298 | 0.0 | 0.0 | 0.00 | 0.00 | 0.00 | 79 | 1013.9 |
| 20260507023331 | 13 | 298 | 0.0 | 0.0 | 0.00 | 0.00 | 0.00 | 79 | 1013.9 |
| 20260507022837 | 13 | 298 | 0.0 | 0.0 | 0.00 | 0.00 | 0.00 | 79 | 1013.9 |
| 20260507022333 | 13 | 298 | 0.0 | 0.0 | 0.00 | 0.00 | 0.00 | 79 | 1013.8 |
| 20260507021840 | 13 | 298 | 0.0 | 0.0 | 0.00 | 0.00 | 0.00 | 79 | 1013.7 |
| 20260507021332 | 13 | 298 | 0.0 | 0.0 | 0.00 | 0.00 | 0.00 | 79 | 1013.7 |
| 20260507020840 | 13 | 298 | 0.0 | 0.0 | 0.00 | 0.00 | 0.00 | 80 | 1013.7 |
| 20260507020331 | 13 | 298 | 0.0 | 0.0 | 0.00 | 0.00 | 0.00 | 80 | 1013.7 |
| 20260507015846 | 13 | 298 | 0.0 | 0.0 | 0.00 | 0.00 | 0.00 | 80 | 1013.7 |
| 20260507015338 | 13 | 298 | 0.0 | 0.0 | 0.00 | 0.00 | 0.00 | 80 | 1013.8 |
| 20260507014334 | 13 | 298 | 0.0 | 0.0 | 0.00 | 0.00 | 0.00 | 80 | 1013.8 |
| 20260507013837 | 13 | 298 | 0.0 | 0.0 | 0.00 | 0.00 | 0.00 | 80 | 1013.8 |
| 20260507013330 | 13 | 298 | 0.0 | 0.0 | 0.00 | 0.00 | 0.00 | 79 | 1013.9 |
| 20260507012839 | 13 | 298 | 0.0 | 0.0 | 0.00 | 0.00 | 0.00 | 79 | 1013.9 |
| 20260507012349 | 13 | 298 | 0.0 | 0.0 | 0.00 | 0.00 | 0.00 | 78 | 1014.0 |
| 20260507011346 | 14 | 298 | 0.0 | 0.0 | 0.00 | 0.00 | 0.00 | 76 | 1014.0 |
| 20260507010833 | 14 | 298 | 0.0 | 0.0 | 0.00 | 0.00 | 0.00 | 76 | 1014.0 |
| 20260507005844 | 14 | 298 | 0.0 | 0.0 | 0.00 | 0.00 | 0.00 | 77 | 1013.9 |
| 20260507005336 | 14 | 298 | 0.0 | 0.0 | 0.00 | 0.00 | 0.00 | 78 | 1014.0 |
| 20260507004844 | 13 | 298 | 0.0 | 0.0 | 0.00 | 0.00 | 0.00 | 78 | 1014.0 |
| 20260507004335 | 14 | 298 | 0.0 | 0.0 | 0.00 | 0.00 | 0.00 | 78 | 1014.0 |
| 20260507003839 | 14 | 298 | 0.0 | 0.0 | 0.00 | 0.00 | 0.00 | 78 | 1014.0 |
| 20260507003333 | 14 | 298 | 0.0 | 0.0 | 0.00 | 0.00 | 0.00 | 77 | 1014.0 |
| 20260507002840 | 14 | 298 | 0.0 | 0.0 | 0.00 | 0.00 | 0.00 | 77 | 1013.9 |
| 20260507002331 | 14 | 298 | 0.0 | 0.0 | 0.00 | 0.00 | 0.00 | 76 | 1013.9 |
| 20260507001838 | 14 | 298 | 0.0 | 0.0 | 0.00 | 0.00 | 0.00 | 76 | 1014.0 |
| 20260507001349 | 15 | 298 | 0.0 | 3.2 | 0.00 | 0.00 | 0.00 | 75 | 1014.0 |
| 20260507000833 | 15 | 298 | 1.6 | 3.2 | 0.00 | 0.00 | 0.00 | 74 | 1014.1 |
| 20260506235844 | 15 | 303 | 0.0 | 3.2 | 0.00 | 0.00 | 0.00 | 74 | 1014.2 |
| 20260506234843 | 15 | 303 | 0.0 | 3.2 | 0.00 | 0.00 | 0.00 | 75 | 1014.2 |
| 20260506233841 | 15 | 299 | 1.6 | 6.4 | 0.00 | 0.00 | 0.00 | 76 | 1014.3 |
| 20260506233332 | 15 | 296 | 3.2 | 6.4 | 0.00 | 0.00 | 0.00 | 76 | 1014.3 |
| 20260506232840 | 15 | 292 | 3.2 | 6.4 | 0.00 | 0.00 | 0.00 | 76 | 1014.3 |
| 20260506232331 | 15 | 292 | 1.6 | 6.4 | 0.00 | 0.00 | 0.00 | 76 | 1014.3 |
| 20260506231835 | 15 | 292 | 3.2 | 6.4 | 0.00 | 0.00 | 0.00 | 77 | 1014.4 |
| 20260506231330 | 15 | 296 | 1.6 | 8.0 | 0.00 | 0.00 | 0.00 | 77 | 1014.4 |
| 20260506230834 | 15 | 294 | 3.2 | 8.0 | 0.00 | 0.00 | 0.00 | 77 | 1014.4 |
| 20260506230344 | 15 | 299 | 3.2 | 8.0 | 0.00 | 0.00 | 0.00 | 77 | 1014.4 |
| 20260506225841 | 15 | 296 | 1.6 | 8.0 | 0.00 | 0.00 | 0.00 | 77 | 1014.4 |
| 20260506225332 | 15 | 292 | 1.6 | 9.7 | 0.00 | 0.00 | 0.00 | 77 | 1014.4 |
| 20260506224838 | 15 | 292 | 3.2 | 9.7 | 0.00 | 0.00 | 0.00 | 77 | 1014.4 |
| 20260506224328 | 15 | 288 | 0.0 | 0.0 | 0.00 | 0.00 | 0.00 | 77 | 1014.4 |
| 20260506223838 | 15 | 288 | 0.0 | 0.0 | 0.00 | 0.00 | 0.00 | 78 | 1014.3 |
| 20260506222838 | 15 | 286 | 0.0 | 0.0 | 0.00 | 0.00 | 0.00 | 79 | 1014.3 |
| 20260506222334 | 15 | 283 | 0.0 | 0.0 | 0.00 | 0.00 | 0.00 | 79 | 1014.3 |
| 20260506221842 | 15 | 281 | 0.0 | 0.0 | 0.00 | 0.00 | 0.00 | 80 | 1014.3 |
| 20260506221334 | 15 | 279 | 0.0 | 0.0 | 0.00 | 0.00 | 0.00 | 80 | 1014.3 |
| 20260506220840 | 15 | 276 | 0.0 | 0.0 | 0.00 | 0.00 | 0.00 | 80 | 1014.3 |
| 20260506220331 | 15 | 277 | 0.0 | 0.0 | 0.00 | 0.00 | 0.00 | 80 | 1014.3 |
| 20260506215843 | 15 | 274 | 0.0 | 0.0 | 0.00 | 0.00 | 0.00 | 80 | 1014.2 |
| 20260506215336 | 15 | 273 | 0.0 | 0.0 | 0.00 | 0.00 | 0.00 | 80 | 1014.3 |
| 20260506214844 | 15 | 272 | 0.0 | 0.0 | 0.00 | 0.00 | 0.00 | 79 | 1014.3 |
| 20260506214335 | 15 | 271 | 0.0 | 0.0 | 0.00 | 0.00 | 0.00 | 79 | 1014.3 |
| 20260506213839 | 15 | 271 | 0.0 | 0.0 | 0.00 | 0.00 | 0.00 | 79 | 1014.2 |
| 20260506212837 | 15 | 276 | 0.0 | 0.0 | 0.00 | 0.00 | 0.00 | 78 | 1014.2 |
| 20260506211837 | 15 | 276 | 0.0 | 0.0 | 0.00 | 0.00 | 0.00 | 76 | 1014.2 |
| 20260506211330 | 16 | 276 | 0.0 | 0.0 | 0.00 | 0.00 | 0.00 | 75 | 1014.2 |
| 20260506210836 | 16 | 276 | 0.0 | 0.0 | 0.00 | 0.00 | 0.00 | 75 | 1014.1 |
| 20260506210348 | 16 | 276 | 0.0 | 0.0 | 0.00 | 0.00 | 0.00 | 74 | 1014.1 |
| 20260506205842 | 16 | 276 | 0.0 | 0.0 | 0.00 | 0.00 | 0.00 | 74 | 1014.1 |
| 20260506205332 | 16 | 276 | 0.0 | 0.0 | 0.00 | 0.00 | 0.00 | 74 | 1014.1 |
| 20260506204839 | 16 | 218 | 0.0 | 0.0 | 0.00 | 0.00 | 0.00 | 74 | 1014.1 |
| 20260506204331 | 16 | 212 | 0.0 | 0.0 | 0.00 | 0.00 | 0.00 | 74 | 1014.1 |
| 20260506203837 | 16 | 212 | 0.0 | 0.0 | 0.00 | 0.00 | 0.00 | 74 | 1014.1 |
| 20260506203330 | 16 | 212 | 0.0 | 0.0 | 0.00 | 0.00 | 0.00 | 73 | 1014.0 |
| 20260506202837 | 16 | 211 | 0.0 | 0.0 | 0.00 | 0.00 | 0.00 | 73 | 1014.1 |
| 20260506202348 | 16 | 211 | 0.0 | 0.0 | 0.00 | 0.00 | 0.00 | 73 | 1014.0 |
| 20260506201842 | 16 | 211 | 0.0 | 0.0 | 0.00 | 0.00 | 0.00 | 73 | 1013.8 |
| 20260506201330 | 16 | 211 | 0.0 | 0.0 | 0.00 | 0.00 | 0.00 | 73 | 1013.8 |
| 20260506200834 | 16 | 211 | 0.0 | 0.0 | 0.00 | 0.00 | 0.00 | 73 | 1013.7 |
| 20260506200341 | 16 | 211 | 0.0 | 0.0 | 0.00 | 0.00 | 0.00 | 73 | 1013.6 |
| 20260506195836 | 16 | 211 | 0.0 | 0.0 | 0.00 | 0.00 | 0.00 | 73 | 1013.6 |
| 20260506194840 | 17 | 210 | 0.0 | 0.0 | 0.00 | 0.00 | 0.00 | 72 | 1013.4 |
| 20260506194330 | 17 | 209 | 0.0 | 0.0 | 0.00 | 0.00 | 0.00 | 72 | 1013.4 |
| 20260506193832 | 17 | 209 | 0.0 | 0.0 | 0.00 | 0.00 | 0.00 | 72 | 1013.4 |
| 20260506193340 | 17 | 209 | 0.0 | 0.0 | 0.00 | 0.00 | 0.00 | 72 | 1013.2 |
| 20260506192845 | 17 | 198 | 0.0 | 0.0 | 0.00 | 0.00 | 0.00 | 71 | 1013.2 |
| 20260506192336 | 17 | 198 | 0.0 | 0.0 | 0.00 | 0.00 | 0.00 | 71 | 1013.2 |
| 20260506191842 | 17 | 198 | 0.0 | 0.0 | 0.00 | 0.00 | 0.00 | 71 | 1013.1 |
| 20260506191332 | 17 | 198 | 0.0 | 0.0 | 0.00 | 0.00 | 0.00 | 71 | 1013.0 |
| 20260506190838 | 17 | 198 | 0.0 | 0.0 | 0.00 | 0.00 | 0.00 | 70 | 1013.0 |
| 20260506190348 | 17 | 198 | 0.0 | 0.0 | 0.00 | 0.00 | 0.00 | 70 | 1012.9 |
| 20260506185843 | 17 | 198 | 0.0 | 0.0 | 0.00 | 0.61 | 0.00 | 70 | 1012.9 |
| 20260506184841 | 17 | 198 | 1.6 | 6.4 | 0.00 | 0.61 | 0.00 | 69 | 1012.8 |
| 20260506184331 | 17 | 198 | 1.6 | 11.3 | 0.00 | 0.61 | 0.00 | 69 | 1012.7 |
| 20260506183330 | 17 | 188 | 3.2 | 11.3 | 0.00 | 0.61 | 0.00 | 68 | 1012.6 |
| 20260506182835 | 18 | 186 | 4.8 | 11.3 | 0.00 | 0.61 | 0.00 | 68 | 1012.6 |
| 20260506182347 | 18 | 194 | 4.8 | 9.7 | 0.00 | 0.61 | 0.00 | 68 | 1012.5 |
| 20260506181346 | 18 | 192 | 6.4 | 11.3 | 0.00 | 0.61 | 0.00 | 68 | 1012.5 |
| 20260506180830 | 18 | 169 | 6.4 | 11.3 | 0.00 | 0.61 | 0.00 | 67 | 1012.5 |
| 20260506180329 | 18 | 184 | 3.2 | 12.9 | 0.00 | 0.61 | 0.00 | 67 | 1012.4 |
| 20260506175843 | 18 | 171 | 6.4 | 12.9 | 0.00 | 0.61 | 0.00 | 67 | 1012.3 |
| 20260506175337 | 18 | 144 | 8.0 | 12.9 | 0.00 | 0.61 | 0.00 | 66 | 1012.3 |
| 20260506174843 | 18 | 184 | 6.4 | 12.9 | 0.00 | 0.61 | 0.00 | 66 | 1012.3 |
| 20260506174334 | 18 | 153 | 8.0 | 12.9 | 0.00 | 0.61 | 0.00 | 66 | 1012.2 |
| 20260506173843 | 18 | 182 | 4.8 | 11.3 | 0.00 | 0.61 | 0.00 | 66 | 1012.1 |
| 20260506173333 | 18 | 178 | 6.4 | 11.3 | 0.00 | 0.61 | 0.00 | 65 | 1012.2 |
| 20260506172838 | 19 | 163 | 3.2 | 12.9 | 0.00 | 0.61 | 0.00 | 64 | 1012.2 |
| 20260506172331 | 19 | 184 | 0.0 | 0.0 | 0.00 | 0.61 | 0.00 | 64 | 1012.1 |
| 20260506171837 | 19 | 183 | 0.0 | 0.0 | 0.00 | 0.61 | 0.00 | 64 | 1012.1 |
| 20260506171330 | 19 | 196 | 0.0 | 0.0 | 0.00 | 0.61 | 0.00 | 63 | 1012.1 |
| 20260506170349 | 19 | 204 | 0.0 | 0.0 | 0.00 | 0.61 | 0.00 | 64 | 1012.2 |
| 20260506165844 | 18 | 204 | 0.0 | 0.0 | 0.00 | 0.61 | 0.00 | 64 | 1012.2 |
| 20260506165335 | 18 | 196 | 0.0 | 0.0 | 0.00 | 0.61 | 0.00 | 64 | 1012.2 |
| 20260506164334 | 18 | 188 | 0.0 | 0.0 | 0.00 | 0.61 | 0.00 | 65 | 1012.3 |
| 20260506163331 | 18 | 186 | 0.0 | 0.0 | 0.00 | 0.61 | 0.00 | 64 | 1012.5 |
| 20260506162836 | 18 | 186 | 0.0 | 0.0 | 0.00 | 0.61 | 0.00 | 64 | 1012.5 |
| 20260506162348 | 18 | 180 | 0.0 | 12.9 | 0.00 | 0.61 | 0.00 | 64 | 1012.5 |
| 20260506161830 | 18 | 180 | 4.8 | 14.5 | 0.00 | 0.61 | 0.00 | 64 | 1012.5 |
| 20260506161341 | 18 | 167 | 6.4 | 14.5 | 0.00 | 0.61 | 0.00 | 63 | 1012.5 |
| 20260506160339 | 19 | 175 | 4.8 | 14.5 | 0.00 | 0.61 | 0.00 | 61 | 1012.5 |
| 20260506155834 | 19 | 209 | 3.2 | 16.1 | 0.00 | 0.61 | 0.00 | 61 | 1012.5 |
| 20260506155347 | 19 | 151 | 6.4 | 12.9 | 0.00 | 0.61 | 0.00 | 61 | 1012.5 |
| 20260506154833 | 19 | 167 | 0.0 | 8.0 | 0.00 | 0.61 | 0.00 | 60 | 1012.6 |
| 20260506154345 | 19 | 204 | 0.0 | 11.3 | 0.00 | 0.61 | 0.00 | 59 | 1012.7 |
| 20260506153848 | 19 | 198 | 6.4 | 12.9 | 0.00 | 0.61 | 0.00 | 60 | 1012.7 |
| 20260506153339 | 19 | 179 | 6.4 | 12.9 | 0.00 | 0.61 | 0.00 | 58 | 1012.8 |
| 20260506152845 | 19 | 192 | 6.4 | 14.5 | 0.00 | 0.61 | 0.00 | 55 | 1012.8 |
| 20260506152336 | 19 | 192 | 8.0 | 14.5 | 0.00 | 0.61 | 0.00 | 55 | 1012.7 |
| 20260506151840 | 19 | 167 | 3.2 | 12.9 | 0.00 | 0.61 | 0.00 | 55 | 1012.7 |
| 20260506151332 | 19 | 163 | 4.8 | 12.9 | 0.00 | 0.61 | 0.00 | 55 | 1012.7 |
| 20260506150840 | 19 | 178 | 6.4 | 12.9 | 0.00 | 0.61 | 0.00 | 55 | 1012.8 |
| 20260506150333 | 19 | 185 | 6.4 | 12.9 | 0.00 | 0.61 | 0.00 | 59 | 1012.8 |
| 20260506145831 | 19 | 199 | 8.0 | 12.9 | 0.00 | 0.61 | 0.00 | 59 | 1012.8 |
| 20260506145343 | 19 | 169 | 8.0 | 16.1 | 0.00 | 0.61 | 0.00 | 58 | 1012.8 |
| 20260506143835 | 19 | 172 | 6.4 | 16.1 | 0.00 | 0.61 | 0.00 | 60 | 1012.8 |
| 20260506143346 | 19 | 167 | 8.0 | 16.1 | 0.00 | 0.61 | 0.00 | 59 | 1012.9 |
| 20260506142831 | 19 | 163 | 8.0 | 16.1 | 0.00 | 0.61 | 0.00 | 60 | 1012.9 |
| 20260506142341 | 19 | 88 | 8.0 | 14.5 | 0.00 | 0.61 | 0.00 | 60 | 1013.0 |
| 20260506141343 | 19 | 170 | 8.0 | 14.5 | 0.00 | 0.61 | 0.00 | 60 | 1013.0 |
| 20260506140832 | 20 | 133 | 8.0 | 14.5 | 0.00 | 0.61 | 0.00 | 58 | 1013.0 |
| 20260506140344 | 20 | 155 | 3.2 | 12.9 | 0.00 | 0.61 | 0.00 | 60 | 1013.1 |
| 20260506135840 | 19 | 178 | 6.4 | 16.1 | 0.00 | 0.61 | 0.00 | 59 | 1013.1 |
| 20260506134841 | 19 | 102 | 8.0 | 17.7 | 0.00 | 0.61 | 0.00 | 59 | 1013.2 |
| 20260506134331 | 20 | 140 | 6.4 | 14.5 | 0.00 | 0.61 | 0.00 | 55 | 1013.1 |
| 20260506133836 | 20 | 132 | 8.0 | 16.1 | 0.00 | 0.61 | 0.00 | 55 | 1013.2 |
| 20260506133331 | 20 | 150 | 6.4 | 12.9 | 0.00 | 0.61 | 0.00 | 53 | 1013.1 |
| 20260506132838 | 20 | 152 | 6.4 | 12.9 | 0.00 | 0.61 | 0.00 | 52 | 1013.0 |
| 20260506132330 | 20 | 182 | 0.0 | 11.3 | 0.00 | 0.61 | 0.00 | 51 | 1013.1 |
| 20260506131836 | 20 | 180 | 4.8 | 12.9 | 0.00 | 0.61 | 0.00 | 51 | 1013.0 |
| 20260506131346 | 20 | 150 | 3.2 | 14.5 | 0.00 | 0.61 | 0.00 | 53 | 1013.1 |
| 20260506130833 | 20 | 161 | 8.0 | 17.7 | 0.00 | 0.61 | 0.00 | 52 | 1013.1 |
| 20260506130345 | 20 | 122 | 8.0 | 17.7 | 0.00 | 0.61 | 0.00 | 52 | 1013.2 |
| 20260506125840 | 20 | 144 | 6.4 | 17.7 | 0.00 | 0.61 | 0.00 | 53 | 1013.1 |
| 20260506125332 | 20 | 163 | 8.0 | 17.7 | 0.00 | 0.61 | 0.00 | 52 | 1013.2 |
| 20260506124840 | 20 | 156 | 4.8 | 16.1 | 0.00 | 0.61 | 0.00 | 53 | 1013.3 |
| 20260506123841 | 20 | 157 | 6.4 | 16.1 | 0.00 | 0.61 | 0.00 | 52 | 1013.3 |
| 20260506123333 | 20 | 140 | 8.0 | 14.5 | 0.00 | 0.61 | 0.00 | 51 | 1013.3 |
| 20260506122839 | 20 | 143 | 6.4 | 11.3 | 0.00 | 0.61 | 0.00 | 51 | 1013.4 |
| 20260506121836 | 20 | 113 | 8.0 | 17.7 | 0.00 | 0.61 | 0.00 | 50 | 1013.4 |
| 20260506121328 | 20 | 144 | 6.4 | 16.1 | 0.00 | 0.61 | 0.00 | 50 | 1013.4 |
| 20260506120837 | 20 | 153 | 8.0 | 20.9 | 0.00 | 0.61 | 0.00 | 51 | 1013.4 |
| 20260506120330 | 20 | 125 | 8.0 | 20.9 | 0.00 | 0.61 | 0.00 | 51 | 1013.4 |
| 20260506115335 | 20 | 143 | 12.9 | 19.3 | 0.00 | 0.61 | 0.00 | 51 | 1013.5 |